Wind_Speed
27 26 26 26 26 27 26 26 25 24 24 21 21 19 17 16 15 14 14 13 13 13 13 13 13 13 13 13 12 12 13 13 14 14 14 14 15 15 15 15 15 16 16 16
28 28 27 27 27 27 27 27 25 25 23 22 22 20 19 18 18 17 15 15 16 15 14 14 14 15 14 14 14 14 14 15 15 15 15 15 15 16 16 16 16 17 17 18
29 29 29 29 28 28 27 27 27 25 24 23 23 22 20 20 20 19 18 17 17 16 16 16 16 16 16 16 16 16 16 16 16 16 16 16 16 17 17 17 18 18 18 19
29 30 32 30 30 30 29 29 28 27 25 25 25 24 23 21 21 20 20 19 18 18 19 19 19 18 18 18 17 17 17 17 17 17 17 17 18 18 18 19 19 20 21 22
32 32 32 32 31 31 31 30 29 29 27 26 25 25 24 22 21 21 21 22 21 20 20 20 21 21 20 20 19 19 18 18 18 19 19 19 19 20 20 20 21 22 23 23
34 34 33 32 31 32 32 32 31 30 28 27 26 26 24 23 23 22 22 22 22 22 21 21 21 21 22 20 21 21 21 20 20 20 20 20 21 21 22 22 23 23 24 24
35 35 34 33 31 32 32 31 31 31 29 29 27 26 25 26 25 24 24 24 25 25 24 23 23 22 22 21 21 21 22 22 22 22 22 22 23 24 24 24 25 25 24 25
36 36 34 33 32 33 32 32 32 31 30 30 29 27 27 27 27 27 26 26 27 26 26 25 25 24 23 23 23 23 23 23 23 23 23 23 24 25 26 26 26 26 26 26
37 36 35 34 33 33 33 33 33 32 32 31 31 30 29 29 28 27 27 28 27 27 27 27 26 25 25 24 25 25 25 24 24 25 24 25 26 26 26 27 27 27 27 27
38 36 35 35 34 34 34 34 34 34 34 34 33 33 32 31 30 29 29 28 28 28 29 29 28 27 26 26 26 27 26 25 26 26 26 27 26 26 27 27 27 28 27 27
38 37 36 37 36 36 35 34 35 35 35 34 34 34 33 31 30 30 30 29 29 28 28 28 26 26 28 28 28 28 27 26 27 27 27 28 27 27 28 28 28 28 28 28
38 39 39 37 36 36 36 35 35 34 34 34 34 34 34 33 32 31 30 29 29 28 28 28 27 27 28 28 29 29 28 28 28 28 28 29 28 28 28 29 29 29 28 28
37 38 38 38 37 37 35 35 35 34 34 34 34 33 33 33 33 32 30 30 30 29 29 29 29 28 27 27 28 29 29 29 28 28 29 29 29 29 29 29 30 30 30 30
36 37 38 38 37 37 36 35 35 35 34 35 35 34 34 33 33 32 31 31 31 31 31 30 29 29 29 29 29 30 30 29 29 29 29 29 30 30 30 31 31 31 31 31
34 35 37 37 37 37 36 36 36 35 34 35 35 34 33 33 32 32 32 32 32 33 32 32 31 30 30 31 31 31 31 31 30 30 30 30 30 30 31 31 31 31 31 31
33 34 35 35 35 35 36 37 36 36 36 37 36 35 34 33 32 32 32 32 32 32 32 32 32 31 31 32 32 32 32 32 32 31 31 30 30 30 30 31 30 30 30 30
31 32 33 33 34 35 35 36 36 36 36 36 36 35 35 34 32 32 32 31 31 31 32 32 32 32 32 32 32 32 32 32 32 32 32 31 31 31 31 31 31 30 30 30
29 29 31 32 34 34 34 34 34 34 34 34 33 34 35 34 32 31 31 30 30 31 32 32 32 32 33 33 32 32 32 32 32 32 32 32 32 31 31 32 32 32 31 31
27 28 29 30 32 32 32 32 33 33 33 34 33 32 32 32 32 32 31 31 31 32 33 33 34 34 34 33 32 32 32 32 32 33 33 32 32 32 32 32 32 32 32 32
26 26 27 29 30 31 31 31 31 32 32 32 32 31 31 31 32 33 33 32 32 32 32 33 33 33 33 32 31 31 32 32 32 33 33 33 33 32 32 31 32 32 32 32
24 25 26 28 29 30 30 29 30 30 31 31 31 30 30 30 31 31 32 32 32 32 32 32 32 32 32 31 31 31 31 31 31 31 32 32 33 32 31 31 31 32 32 32
21 21 22 24 25 26 26 27 28 29 29 30 30 29 29 29 30 31 31 30 31 32 32 32 31 31 31 31 31 30 30 30 29 30 30 30 30 29 29 30 30 31 31 32
17 17 19 20 22 22 23 25 25 26 27 27 27 27 27 28 28 30 30 30 30 30 30 30 29 29 28 29 29 29 28 28 28 28 28 28 28 28 29 30 30 30 31 31
15 15 17 18 20 20 21 21 23 24 24 23 24 24 25 26 26 28 29 29 27 26 26 26 25 25 25 25 25 25 26 26 26 26 26 26 26 27 27 28 28 29 29 28
12 13 14 16 16 18 18 18 19 20 20 20 21 21 22 23 23 24 25 25 24 23 23 22 22 23 23 23 23 23 23 24 23 23 24 24 25 25 26 26 26 26 26 27
10 11 12 12 12 14 15 15 16 17 19 19 19 19 19 19 20 20 19 19 19 19 19 19 21 21 21 21 21 21 22 22 22 22 23 23 23 23 23 24 24 24 25 26
8 8 9 9 10 11 12 13 14 15 16 16 17 17 18 17 16 16 16 16 17 17 17 17 17 17 18 18 19 19 20 20 20 20 20 21 22 22 23 23 24 24 24 24
Wind_Direction
238 237 237 239 239 239 240 244 247 251 253 253 255 257 261 264 264 267 268 267 269 272 274 275 278 282 287 289 290 292 294 295 296 299 303 306 308 307 306 305 305 304 303 306
238 237 237 237 238 239 241 243 246 251 252 250 254 258 262 266 266 264 266 267 267 267 271 274 277 281 285 287 288 288 289 290 292 295 298 301 304 305 303 302 303 303 301 300
239 237 237 238 239 242 243 244 246 249 251 251 254 259 264 266 266 266 264 266 270 272 269 273 277 280 281 283 284 286 288 289 291 293 295 299 301 304 302 300 300 301 299 298
241 239 240 240 241 243 243 244 246 248 252 253 254 259 264 266 264 265 263 264 267 269 269 269 272 276 278 279 282 284 285 286 288 289 291 294 297 298 300 300 299 300 299 298
242 243 243 242 243 244 245 245 247 249 251 254 255 258 262 264 263 262 263 264 265 266 268 270 272 274 275 277 280 281 282 283 285 286 288 289 292 295 296 296 297 298 299 298
244 245 245 243 245 246 246 246 247 249 250 252 254 256 258 260 261 261 263 262 263 263 265 268 272 274 273 276 279 278 279 280 282 284 286 287 288 291 293 296 297 299 299 299
244 245 245 243 244 246 246 247 248 250 251 252 253 254 256 258 258 259 260 261 261 261 263 266 270 274 277 277 280 281 281 281 282 284 285 287 289 291 294 296 296 296 296 295
245 245 245 244 244 245 247 247 249 250 251 252 253 254 254 255 256 257 259 261 262 262 262 265 267 272 276 279 280 280 281 283 285 285 286 288 290 291 292 294 295 295 296 296
245 246 246 245 244 245 247 248 248 249 250 252 253 254 254 255 256 258 259 261 262 262 262 264 265 269 273 276 279 279 280 282 284 284 285 289 291 290 291 292 293 293 295 296
246 246 246 245 246 246 248 249 249 248 249 250 252 252 253 254 258 260 259 261 262 261 262 264 264 268 270 274 276 278 279 281 284 285 287 288 292 291 292 293 294 295 294 294
245 245 245 246 246 246 247 248 249 249 250 251 252 253 253 254 257 258 258 258 260 261 264 263 266 270 271 272 274 276 278 280 282 284 287 290 292 294 294 294 295 296 295 294
245 245 245 244 245 246 246 247 249 249 249 250 251 252 252 254 256 257 257 258 258 259 261 264 267 269 272 274 275 276 278 279 281 283 285 288 290 292 293 294 294 295 295 294
247 246 246 245 244 244 246 246 247 248 249 250 252 253 253 253 253 253 254 257 256 256 259 262 265 267 270 272 275 277 278 279 280 282 283 285 287 288 290 292 293 294 293 293
247 247 246 245 244 244 246 246 246 247 248 249 250 251 252 252 250 250 252 253 255 257 259 263 266 267 270 272 274 276 277 277 280 282 283 283 285 286 288 290 290 291 291 292
248 249 248 247 246 246 246 245 245 245 247 249 249 251 252 253 251 249 251 253 254 256 259 263 266 267 268 271 274 275 275 276 278 281 282 283 284 285 287 289 290 291 292 293
250 251 251 248 246 246 246 245 246 246 247 249 250 251 253 254 252 250 251 253 254 254 258 262 265 266 267 270 272 273 275 276 278 279 281 284 284 285 287 289 290 293 294 293
252 253 251 248 246 246 247 246 247 248 248 250 250 251 253 253 253 254 254 255 256 256 258 261 262 264 266 268 271 272 274 275 278 279 280 282 283 285 285 287 289 292 293 293
253 253 251 251 248 248 248 247 247 247 247 247 250 253 254 254 254 256 255 256 256 258 260 262 263 265 267 269 269 271 271 273 276 276 278 280 280 283 286 288 290 290 291 292
253 253 254 253 251 251 250 249 248 247 248 249 252 254 253 254 254 255 256 256 257 259 260 262 264 266 268 269 270 272 273 275 276 275 275 278 282 285 285 287 287 288 289 291
254 253 253 252 252 252 251 252 250 247 247 249 250 252 253 253 254 256 257 258 259 259 260 261 263 266 269 270 271 273 274 274 275 274 275 278 281 283 285 286 287 288 290 290
257 255 254 253 250 250 251 251 249 248 247 247 248 249 251 253 255 257 257 258 260 261 262 263 264 265 268 270 271 272 272 273 273 274 277 279 281 284 286 288 290 290 291 291
258 256 254 252 250 249 250 251 249 248 248 246 246 248 250 252 254 256 257 261 263 262 262 264 266 266 266 269 271 272 273 273 274 277 279 281 284 286 288 289 291 292 292 291
262 261 258 255 252 253 253 251 250 249 248 247 247 248 251 252 255 256 257 261 265 263 263 265 266 264 266 269 271 271 272 274 276 278 280 282 284 286 287 289 291 292 293 293
263 259 257 254 252 253 250 246 243 244 246 247 248 249 252 253 255 256 259 261 259 260 263 265 267 267 269 271 272 272 273 276 278 279 280 282 284 286 288 289 291 292 293 294
267 263 261 256 253 252 249 245 242 241 242 244 247 250 253 256 257 257 260 260 257 258 260 262 265 269 272 274 274 273 273 277 279 281 282 284 286 287 288 290 292 293 293 294
272 267 262 259 257 252 248 246 245 244 244 245 246 248 251 254 255 257 258 255 255 257 260 264 267 269 271 273 273 274 277 280 281 283 284 285 286 288 290 293 294 295 296 297
279 279 271 260 254 252 249 245 243 244 245 245 248 249 251 253 253 253 254 255 257 258 261 266 269 270 272 273 274 276 279 281 283 285 287 288 289 291 293 295 295 295 297 298
Height
5852 5855 5858 5860 5863 5866 5868 5871 5873 5876 5879 5882 5883 5885 5886 5886 5887 5888 5888 5888 5888 5888 5888 5887 5887 5887 5887 5886 5886 5885 5884 5884 5883 5881 5880 5879 5877 5876 5874 5872 5871 5869 5868 5866
5846 5849 5852 5855 5858 5861 5863 5866 5869 5871 5874 5877 5878 5880 5881 5882 5883 5883 5884 5884 5884 5884 5884 5883 5883 5883 5883 5882 5882 5882 5881 5880 5879 5878 5876 5875 5873 5871 5870 5868 5867 5865 5864 5862
5840 5843 5846 5849 5852 5855 5858 5860 5864 5866 5869 5870 5873 5874 5876 5877 5878 5879 5879 5880 5880 5880 5879 5879 5879 5879 5878 5878 5877 5877 5876 5875 5874 5873 5872 5871 5869 5867 5865 5864 5863 5861 5859 5857
5834 5838 5840 5845 5847 5849 5851 5854 5857 5860 5862 5864 5867 5869 5870 5871 5872 5873 5874 5874 5875 5875 5875 5874 5874 5874 5873 5873 5872 5871 5871 5870 5869 5868 5867 5866 5864 5863 5861 5859 5857 5856 5853 5851
5827 5829 5833 5837 5840 5842 5845 5848 5851 5854 5856 5858 5860 5862 5864 5865 5866 5867 5867 5868 5868 5869 5869 5869 5869 5868 5868 5868 5867 5866 5865 5865 5864 5863 5862 5860 5859 5858 5856 5854 5852 5849 5847 5845
5819 5822 5825 5831 5833 5835 5839 5841 5844 5847 5849 5851 5853 5856 5858 5859 5860 5860 5861 5862 5862 5863 5863 5863 5862 5862 5862 5862 5861 5860 5859 5859 5858 5857 5856 5854 5853 5852 5850 5848 5846 5843 5841 5839
5811 5813 5817 5823 5826 5829 5833 5836 5837 5839 5842 5844 5846 5849 5851 5851 5853 5854 5855 5855 5855 5856 5857 5857 5856 5856 5856 5856 5855 5854 5853 5852 5851 5850 5849 5848 5847 5845 5844 5842 5839 5837 5835 5832
5802 5806 5812 5815 5818 5822 5825 5827 5829 5832 5834 5837 5839 5841 5842 5843 5845 5846 5848 5848 5849 5849 5850 5850 5850 5850 5849 5849 5848 5847 5846 5845 5844 5843 5842 5841 5840 5838 5836 5835 5832 5830 5828 5825
5795 5800 5803 5806 5810 5813 5816 5819 5821 5824 5826 5828 5831 5833 5835 5836 5837 5838 5840 5841 5841 5842 5842 5842 5842 5842 5842 5842 5841 5840 5839 5839 5838 5836 5835 5834 5832 5830 5829 5827 5825 5822 5820 5818
5786 5790 5794 5797 5801 5804 5807 5810 5812 5815 5818 5820 5822 5824 5826 5828 5829 5831 5832 5833 5833 5834 5835 5835 5834 5834 5834 5834 5833 5833 5832 5832 5831 5829 5828 5826 5824 5823 5821 5819 5817 5814 5812 5810
5776 5781 5784 5788 5791 5795 5798 5801 5803 5806 5808 5811 5813 5815 5817 5819 5821 5822 5823 5824 5825 5826 5826 5826 5826 5826 5826 5826 5826 5825 5825 5824 5823 5822 5821 5819 5817 5815 5813 5811 5809 5807 5805 5803
5767 5771 5774 5778 5782 5785 5788 5791 5794 5797 5799 5802 5804 5806 5808 5810 5811 5813 5814 5815 5816 5817 5818 5818 5818 5819 5818 5818 5818 5817 5817 5816 5815 5814 5813 5811 5810 5808 5806 5804 5801 5799 5797 5795
5757 5760 5764 5768 5772 5775 5778 5781 5784 5787 5790 5792 5794 5796 5798 5800 5802 5803 5804 5806 5807 5809 5810 5810 5810 5810 5810 5809 5809 5809 5809 5808 5807 5806 5805 5803 5802 5800 5798 5796 5793 5791 5789 5787
5747 5750 5753 5757 5761 5765 5768 5771 5774 5777 5780 5782 5785 5787 5788 5790 5791 5793 5795 5796 5798 5799 5800 5801 5802 5802 5801 5801 5801 5801 5800 5799 5799 5798 5796 5795 5794 5792 5790 5788 5785 5783 5781 5778
5738 5740 5743 5747 5751 5754 5757 5760 5764 5767 5770 5772 5774 5776 5778 5779 5781 5783 5785 5787 5788 5790 5791 5792 5792 5793 5792 5792 5792 5792 5791 5791 5790 5789 5787 5786 5785 5783 5781 5779 5777 5774 5773 5770
5729 5731 5733 5736 5740 5744 5747 5750 5753 5757 5759 5762 5764 5766 5768 5770 5772 5773 5775 5777 5779 5780 5781 5782 5782 5783 5783 5782 5782 5782 5782 5781 5780 5779 5778 5777 5776 5774 5772 5771 5769 5766 5764 5762
5720 5722 5724 5727 5730 5734 5737 5740 5743 5746 5749 5752 5754 5756 5758 5760 5762 5764 5766 5767 5769 5770 5772 5772 5773 5773 5773 5773 5773 5773 5772 5772 5771 5770 5769 5768 5767 5765 5763 5762 5760 5758 5756 5753
5712 5713 5715 5717 5720 5724 5727 5730 5734 5737 5740 5742 5745 5747 5748 5750 5753 5755 5756 5757 5759 5760 5762 5762 5762 5763 5763 5763 5763 5763 5762 5762 5761 5760 5759 5758 5757 5756 5755 5753 5751 5749 5747 5745
5703 5705 5707 5708 5711 5714 5717 5720 5723 5726 5729 5732 5735 5737 5739 5741 5743 5745 5747 5749 5750 5751 5752 5752 5753 5753 5753 5753 5752 5752 5752 5752 5751 5750 5749 5748 5747 5746 5745 5743 5741 5740 5737 5735
5695 5696 5698 5700 5702 5705 5708 5711 5714 5716 5719 5722 5725 5728 5730 5732 5734 5736 5737 5739 5740 5740 5741 5741 5742 5742 5742 5742 5742 5742 5742 5742 5741 5740 5739 5738 5737 5736 5734 5733 5731 5730 5728 5726
5687 5688 5690 5692 5694 5696 5699 5701 5704 5707 5710 5712 5715 5718 5721 5723 5724 5726 5727 5729 5730 5730 5731 5731 5732 5732 5732 5733 5733 5733 5732 5732 5731 5730 5729 5728 5727 5726 5724 5723 5722 5720 5718 5716
5680 5680 5682 5683 5685 5687 5690 5692 5695 5698 5701 5703 5707 5709 5712 5714 5715 5717 5718 5720 5721 5721 5722 5722 5722 5722 5723 5723 5723 5723 5722 5722 5721 5721 5720 5719 5718 5717 5715 5714 5713 5711 5709 5706
5674 5674 5675 5677 5679 5680 5682 5685 5687 5690 5692 5695 5698 5701 5703 5705 5707 5708 5710 5711 5711 5712 5712 5713 5713 5713 5714 5714 5714 5714 5714 5713 5713 5712 5711 5710 5709 5708 5707 5705 5703 5701 5699 5697
5669 5669 5670 5671 5673 5674 5675 5677 5680 5683 5685 5688 5691 5693 5695 5697 5698 5700 5701 5702 5703 5703 5704 5705 5705 5705 5706 5706 5706 5705 5705 5705 5704 5704 5703 5702 5701 5699 5698 5697 5695 5693 5690 5688
5665 5664 5665 5666 5667 5668 5670 5671 5674 5677 5680 5682 5684 5686 5688 5689 5691 5693 5694 5695 5695 5696 5697 5698 5698 5698 5699 5698 5698 5698 5698 5698 5697 5696 5695 5694 5693 5692 5690 5689 5687 5685 5683 5681
5662 5661 5661 5662 5662 5664 5665 5668 5670 5673 5675 5677 5679 5680 5682 5684 5685 5686 5687 5688 5689 5690 5691 5691 5691 5692 5692 5692 5692 5691 5691 5691 5690 5689 5688 5687 5686 5685 5684 5682 5680 5678 5676 5674
5659 5659 5658 5658 5659 5661 5663 5665 5667 5669 5671 5673 5674 5676 5678 5679 5681 5681 5682 5683 5684 5685 5685 5686 5686 5686 5686 5686 5686 5686 5685 5685 5684 5683 5683 5681 5680 5679 5677 5676 5674 5672 5669 5667